EW4052 Weather Reports


time (UTC)temp
F
wind
direction
speed
knots
gust
knots
rain 1hr
in
rain 24hr
in
rain mn
in
humidity
%
barometer
mb
20260510221556 66 284 11.3 17.4 0.00 0.00 0.00 32 1018.0
20260510220055 65 261 7.0 19.1 0.00 0.00 0.00 31 1017.9
20260510214554 66 232 9.6 20.9 0.00 0.00 0.00 35 1017.7
20260510213055 66 295 12.2 21.7 0.00 0.00 0.00 30 1017.6
20260510211553 66 248 11.3 17.4 0.00 0.00 0.00 33 1017.5
20260510210053 66 244 16.5 20.9 0.00 0.00 0.00 31 1017.5
20260510204552 67 236 16.5 20.9 0.00 0.00 0.00 31 1017.5
20260510203050 66 266 13.9 20.9 0.00 0.00 0.00 31 1017.6
20260510201548 66 284 10.4 20.9 0.00 0.00 0.00 34 1017.6
20260510200047 65 280 9.6 17.4 0.00 0.00 0.00 32 1017.6
20260510194546 64 273 9.6 14.8 0.00 0.00 0.00 32 1017.6
20260510193050 64 243 9.6 17.4 0.00 0.00 0.00 34 1017.7
20260510191545 64 271 11.3 18.2 0.00 0.00 0.00 35 1017.9
20260510190051 65 242 9.6 20.0 0.00 0.00 0.00 28 1018.1
20260510184606 64 244 10.4 17.4 0.00 0.00 0.00 38 1018.3
20260510183041 64 250 10.4 22.6 0.00 0.00 0.00 29 1018.5
20260510181554 63 236 10.4 20.0 0.00 0.00 0.00 37 1018.6
20260510180049 64 233 8.7 22.6 0.00 0.00 0.00 29 1018.6
20260510174536 64 254 12.2 20.9 0.00 0.00 0.00 35 1018.7
20260510173033 62 254 7.0 19.1 0.00 0.00 0.00 32 1018.8
20260510171536 62 241 10.4 19.1 0.00 0.00 0.00 38 1019.0
20260510170031 62 238 7.8 18.2 0.00 0.00 0.00 35 1019.1
20260510164529 61 239 6.1 16.5 0.00 0.00 0.00 35 1019.2
20260510163027 61 238 11.3 19.1 0.00 0.00 0.00 39 1019.2
20260510161523 60 229 5.2 16.5 0.00 0.00 0.00 36 1019.1
20260510160021 59 234 10.4 18.2 0.00 0.00 0.00 40 1019.0
20260510154519 59 242 9.6 19.1 0.00 0.00 0.00 34 1019.1
20260510153037 59 257 8.7 15.6 0.00 0.00 0.00 37 1019.1
20260510151515 58 227 4.3 12.2 0.00 0.00 0.00 36 1019.2
20260510150012 57 226 3.5 13.0 0.00 0.00 0.00 37 1019.2
20260510144519 56 240 5.2 9.6 0.00 0.00 0.00 39 1019.2
20260510143005 55 248 1.7 8.7 0.00 0.00 0.00 38 1019.3
20260510141501 54 245 5.2 7.8 0.00 0.00 0.00 41 1019.4
20260510140057 53 227 3.5 9.6 0.00 0.00 0.00 44 1019.5
20260510134552 51 229 3.5 7.0 0.00 0.00 0.00 47 1019.5
20260510133047 49 240 1.7 5.2 0.00 0.00 0.00 49 1019.5
20260510131546 48 235 1.7 4.3 0.00 0.00 0.00 59 1019.4
20260510130045 47 232 0.0 4.3 0.00 0.00 0.00 54 1019.3
20260510124546 46 233 0.0 3.5 0.00 0.00 0.00 56 1019.3
20260510123042 46 231 4.3 7.0 0.00 0.00 0.00 58 1019.1
20260510121542 45 234 0.0 5.2 0.00 0.00 0.00 61 1019.0
20260510120039 43 232 4.3 7.0 0.00 0.00 0.00 62 1018.9
20260510114537 42 225 1.7 4.3 0.00 0.00 0.00 62 1018.7
20260510113035 40 225 0.0 1.7 0.00 0.00 0.00 59 1018.5
20260510111543 40 225 0.0 2.6 0.00 0.00 0.00 58 1018.4
20260510110038 40 223 0.0 2.6 0.00 0.00 0.00 58 1018.3
20260510104541 40 222 0.0 3.5 0.00 0.00 0.00 57 1018.3
20260510103029 39 212 0.0 3.5 0.00 0.00 0.00 58 1018.1
20260510101528 38 203 0.0 3.5 0.00 0.00 0.00 59 1018.1
20260510100026 38 215 0.0 3.5 0.00 0.00 0.00 60 1018.0
20260510094523 39 271 0.0 0.0 0.00 0.00 0.00 58 1017.7
20260510093020 40 271 0.0 0.0 0.00 0.00 0.00 59 1017.5
20260510091525 40 271 0.0 0.0 0.00 0.00 0.00 58 1017.5
20260510090017 40 271 0.0 0.0 0.00 0.00 0.00 57 1017.1
20260510084534 41 271 0.0 0.0 0.00 0.00 0.00 58 1017.1
20260510083012 41 271 0.0 0.0 0.00 0.00 0.00 57 1016.9
20260510081516 43 271 0.0 0.0 0.00 0.00 0.00 55 1016.8
20260510080004 46 273 1.7 3.5 0.00 0.00 0.00 54 1016.5
20260510074502 47 274 2.6 5.2 0.00 0.00 0.00 53 1016.4
20260510073059 46 275 2.6 5.2 0.00 0.00 0.00 54 1016.1
20260510071557 47 268 2.6 5.2 0.00 0.00 0.00 52 1016.0
20260510070055 47 265 2.6 5.2 0.00 0.00 0.00 52 1016.1
20260510064553 47 265 2.6 5.2 0.00 0.00 0.00 52 1016.1
20260510063051 48 267 2.6 5.2 0.00 0.00 0.00 51 1016.0
20260510061601 48 271 3.5 5.2 0.00 0.00 0.00 49 1015.8
20260510060048 49 275 3.5 6.1 0.00 0.00 0.00 50 1015.7
20260510054543 49 261 3.5 6.1 0.00 0.00 0.00 50 1015.6
20260510053044 49 260 2.6 5.2 0.00 0.00 0.00 49 1015.4
20260510051541 49 263 0.0 5.2 0.00 0.00 0.00 47 1015.3
20260510050034 49 263 1.7 7.0 0.00 0.00 0.00 47 1015.0
20260510044531 49 265 4.3 8.7 0.00 0.00 0.00 46 1014.9
20260510043030 50 273 4.3 8.7 0.00 0.00 0.00 47 1014.7
20260510041534 50 276 7.0 8.7 0.00 0.00 0.00 46 1014.6
20260510040027 51 267 5.2 8.7 0.00 0.00 0.00 47 1014.4
20260510034527 51 268 6.1 9.6 0.00 0.00 0.00 45 1014.1
20260510033023 51 271 4.3 7.8 0.00 0.00 0.00 44 1014.0
20260510031521 52 272 2.6 6.1 0.00 0.00 0.00 44 1013.8
20260510030021 52 267 2.6 7.0 0.00 0.00 0.00 43 1013.6
20260510024526 53 266 2.6 7.0 0.00 0.00 0.00 44 1013.5
20260510023014 54 265 4.3 7.8 0.00 0.00 0.00 41 1013.2
20260510021514 54 270 5.2 9.6 0.00 0.00 0.00 40 1012.8
20260510020011 55 268 4.3 8.7 0.00 0.00 0.00 41 1012.4
20260510014506 56 270 6.1 9.6 0.00 0.00 0.00 37 1012.0
20260510013003 57 298 6.1 12.2 0.00 0.00 0.00 39 1011.5
20260510011601 57 282 7.8 11.3 0.00 0.00 0.00 37 1011.2
20260510010058 58 281 8.7 12.2 0.00 0.00 0.00 35 1011.0
20260510004557 59 273 10.4 13.9 0.00 0.00 0.00 36 1010.7
20260510003055 60 268 11.3 16.5 0.00 0.00 0.00 35 1010.4
20260510001554 61 306 10.4 15.6 0.00 0.00 0.00 34 1010.2
20260510000051 61 296 10.4 18.2 0.00 0.00 0.00 34 1009.9
20260509234548 62 271 8.7 17.4 0.00 0.00 0.00 35 1009.8
20260509233047 62 293 10.4 15.6 0.00 0.00 0.00 33 1009.6
20260509231554 62 288 11.3 16.5 0.00 0.00 0.00 33 1009.4
20260509230044 62 276 12.2 22.6 0.00 0.00 0.00 35 1009.4
20260509224543 63 286 12.2 17.4 0.00 0.00 0.00 36 1009.2
20260509223042 63 269 12.2 20.0 0.00 0.00 0.00 33 1009.0